Monclova, OH

4:24 PM EDT on August 29, 2016 (GMT -0400)
Toledo Express

Weather History for KTOL - April, 2013

Change the Weather History Date:

Thursday, April 11, 2013

  Actual Average Record
Temperature  
Mean Temperature 40 °F 48 °F  
Max Temperature 42 °F 58 °F 87 °F (1930)
Min Temperature 37 °F 37 °F 19 °F (1975)
Degree Days  
Heating Degree Days 25 17  
Month to date heating degree days 240 212  
Since 1 July heating degree days 5667 5638  
Cooling Degree Days 0 0  
Month to date cooling degree days 0 0  
Year to date cooling degree days 0 0  
Moisture  
Dew Point 37 °F    
Average Humidity 89    
Maximum Humidity 92    
Minimum Humidity 85    
Precipitation  
Precipitation 1.16 in 0.11 in 1.16 in (2013)
Month to date precipitation 1.93 1.15  
Year to date precipitation 9.10 7.75  
Snow  
Snow 0.00 in 0.10 in - ()
Month to date snowfall T 0.8  
Since 1 July snowfall 22.1 37.0  
Snow Depth 0.00 in    
Sea Level Pressure  
Sea Level Pressure 29.83 in    
Wind  
Wind Speed 17 mph (East)    
Max Wind Speed 31 mph    
Max Gust Speed 40 mph    
Visibility 8 miles    
Events Rain , Thunderstorm    
T = Trace of Precipitation, MM = Missing Value Source: NWS Daily Summary

Daily Weather History Graph

Daily Weather History Graph

Search for Another Location

Airport or City:

Trip Planner

Search our weather history database for the weather conditions in past years. The results will help you decide how hot, cold, wet, or windy it might be!

Date:

Astronomy

Apr. 11, 2013 Rise Set
Actual Time 7:01 AM EDT 8:11 PM EDT
Civil Twilight 6:32 AM EDT 8:40 PM EDT
Nautical Twilight 5:58 AM EDT 9:14 PM EDT
Astronomical Twilight 5:22 AM EDT 9:50 PM EDT
Moon 7:31 AM EDT (4/11) 9:46 PM EDT (4/11)
Length of Visible Light 14h 07m
Length of Day
13h 10m
New Moon, 2% of the Moon is Illuminated
Apr 11
New Moon
Apr 18
First Quarter
Apr 25
Full
May 2
Last Quarter
May 9
New

Hourly Weather History & Observations

Time (EDT) Temp. Windchill Dew Point Humidity Pressure Visibility Wind Dir Wind Speed Gust Speed Precip Events Conditions
12:00 AM 42.8 °F 36.2 °F 39.2 °F 87% 29.95 in 6.0 mi East 12.7 mph - 0.00 in Rain Light Rain
12:21 AM 42.8 °F 33.8 °F 39.2 °F 87% 29.92 in 10.0 mi East 21.9 mph 28.8 mph 0.00 in Rain Light Rain
12:52 AM 41.0 °F 30.9 °F 37.9 °F 89% 29.87 in 10.0 mi East 24.2 mph 34.5 mph 0.01 in Rain Light Rain
1:07 AM 41.0 °F 30.7 °F 37.4 °F 87% 29.89 in 10.0 mi ENE 25.3 mph 33.4 mph 0.00 in Rain Light Rain
1:52 AM 41.0 °F 33.1 °F 37.9 °F 89% 29.93 in 5.0 mi ENE 15.0 mph 20.7 mph 0.05 in Rain Rain
2:52 AM 41.0 °F 32.8 °F 37.9 °F 89% 29.90 in 10.0 mi ENE 16.1 mph 25.3 mph 0.10 in   Overcast
3:52 AM 41.0 °F 31.6 °F 37.9 °F 89% 29.83 in 10.0 mi East 20.7 mph 31.1 mph 0.00 in Thunderstorm Overcast
4:12 AM 41.0 °F 32.2 °F 37.4 °F 87% 29.82 in 10.0 mi ENE 18.4 mph 28.8 mph N/A   Overcast
4:39 AM 41.0 °F 32.8 °F 37.4 °F 87% 29.82 in 8.0 mi East 16.1 mph 24.2 mph N/A Thunderstorm Overcast
4:52 AM 41.0 °F 31.4 °F 39.0 °F 93% 29.85 in 3.0 mi ENE 21.9 mph 40.3 mph 0.01 in Rain , Thunderstorm Heavy Thunderstorms and Rain
4:57 AM 41.0 °F 31.6 °F 37.4 °F 87% 29.83 in 1.8 mi ENE 20.7 mph 40.3 mph 0.11 in Rain , Thunderstorm Heavy Thunderstorms and Rain
5:03 AM 41.0 °F 33.9 °F 37.4 °F 87% 29.95 in 2.5 mi NW 12.7 mph 35.7 mph 0.14 in Rain , Thunderstorm Heavy Thunderstorms and Rain
5:05 AM 41.0 °F 32.2 °F 37.4 °F 87% 29.97 in 3.0 mi West 18.4 mph 27.6 mph 0.15 in Rain Heavy Rain
5:15 AM 41.0 °F 39.0 °F 37.4 °F 87% 29.94 in 1.8 mi Variable 3.5 mph - 0.26 in Rain Heavy Rain
5:25 AM 41.0 °F 34.7 °F 39.2 °F 93% 29.91 in 2.5 mi East 10.4 mph - 0.35 in Rain Heavy Rain
5:49 AM 41.0 °F 34.7 °F 39.2 °F 93% 29.90 in 5.0 mi East 10.4 mph - 0.52 in Rain Light Rain
5:52 AM 41.0 °F 35.2 °F 39.0 °F 93% 29.91 in 6.0 mi East 9.2 mph - 0.52 in Rain Light Rain
6:18 AM 41.0 °F 31.4 °F 37.4 °F 87% 29.83 in 5.0 mi East 21.9 mph 28.8 mph 0.05 in Rain Rain
6:52 AM 39.9 °F 31.8 °F 37.0 °F 89% 29.85 in 10.0 mi East 15.0 mph 26.5 mph 0.07 in Rain Light Rain
6:59 AM 39.2 °F 29.8 °F 37.4 °F 93% 29.84 in 10.0 mi East 18.4 mph 25.3 mph 0.00 in Rain Light Rain
7:52 AM 39.9 °F 32.1 °F 37.0 °F 89% 29.88 in 10.0 mi East 13.8 mph 23.0 mph 0.00 in Rain Light Rain
8:34 AM 39.2 °F 30.5 °F 37.4 °F 93% 29.87 in 10.0 mi East 16.1 mph 25.3 mph 0.02 in Rain Light Rain
8:52 AM 39.0 °F 29.9 °F 36.0 °F 89% 29.88 in 10.0 mi ENE 17.3 mph 24.2 mph 0.02 in   Overcast
9:52 AM 39.0 °F 28.8 °F 36.0 °F 89% 29.86 in 10.0 mi ENE 21.9 mph 31.1 mph N/A   Overcast
10:52 AM 39.2 °F 28.5 °F 35.6 °F 87% 29.85 in 10.0 mi East 24.2 mph 33.4 mph N/A   Overcast
11:52 AM 37.9 °F 27.1 °F 36.0 °F 93% 29.86 in 10.0 mi ENE 23.0 mph 33.4 mph N/A   Overcast
12:52 PM 37.9 °F 27.9 °F 35.1 °F 89% 29.85 in 10.0 mi East 19.6 mph 27.6 mph 0.00 in Rain Light Rain
1:52 PM 37.9 °F 27.9 °F 35.1 °F 89% 29.87 in 10.0 mi East 19.6 mph 26.5 mph 0.00 in   Overcast
2:52 PM 37.9 °F 28.2 °F 35.1 °F 89% 29.82 in 9.0 mi East 18.4 mph 31.1 mph N/A   Overcast
3:52 PM 37.0 °F 26.2 °F 34.0 °F 89% 29.80 in 10.0 mi East 21.9 mph 31.1 mph N/A   Overcast
4:52 PM 37.0 °F 27.7 °F 35.1 °F 93% 29.78 in 7.0 mi East 16.1 mph 27.6 mph 0.00 in Rain Light Rain
5:01 PM 37.4 °F 27.5 °F 35.6 °F 93% 29.76 in 5.0 mi East 18.4 mph 27.6 mph 0.00 in Rain Light Rain
5:52 PM 37.0 °F 27.4 °F 35.1 °F 93% 29.76 in 8.0 mi East 17.3 mph 25.3 mph 0.00 in Rain Light Rain
6:52 PM 37.9 °F 29.2 °F 36.0 °F 93% 29.74 in 6.0 mi ENE 15.0 mph 23.0 mph 0.00 in Rain Light Rain
7:52 PM 37.9 °F 29.2 °F 36.0 °F 93% 29.71 in 7.0 mi East 15.0 mph 21.9 mph 0.02 in Rain Light Rain
8:40 PM 37.4 °F 27.8 °F 35.6 °F 93% 29.68 in 7.0 mi East 17.3 mph 24.2 mph 0.04 in Rain Rain
8:52 PM 37.9 °F 30.0 °F 36.0 °F 93% 29.70 in 8.0 mi East 12.7 mph 20.7 mph 0.05 in Rain Light Rain
9:52 PM 37.9 °F 28.5 °F 36.0 °F 93% 29.69 in 4.0 mi East 17.3 mph - 0.10 in Rain Rain
10:52 PM 37.9 °F 28.5 °F 35.1 °F 89% 29.60 in 6.0 mi East 17.3 mph 31.1 mph 0.14 in Rain Rain
11:52 PM 37.9 °F 28.9 °F 36.0 °F 93% 29.62 in 10.0 mi East 16.1 mph 26.5 mph 0.01 in Rain Light Rain